Regional Weather Roundup
Issued by NWS

Home | Current Version | Previous Version | Graphics & Text | Print | Product List | Glossary Off
Versions: 1 2 3 4 5 6 7 8 9 10 11 12 13 14 15 16 17 18 19 20 21 22 23 24 25 26 27 28 29 30 31 32 33 34 35 36 37 38 39 40 41 42 43 44 45 46 47 48 49 50

000
ASUS43 KMPX 221101
RWRMN
WEATHER ROUNDUP FOR MINNESOTA
NATIONAL WEATHER SERVICE TWIN CITIES/CHANHASSEN MN
600 AM CDT MON SEP 22 2014


NOTE: "FAIR" INDICATES FEW OR NO CLOUDS BELOW 12,000 FEET WITH NO
SIGNIFICANT WEATHER AND/OR OBSTRUCTIONS TO VISIBILITY. N/A MEANS
CURRENT SKY AND/OR WEATHER CONDITIONS ARE NOT AVAILABLE.

MNZ060>063-068>070-221200-
   Twin Cities Metro

CITY           SKY/WX    TMP DP  RH WIND       PRES   REMARKS
TWIN CITIES    CLEAR     50  47  89 SW3       30.24R
ST PAUL        CLEAR     48  47  96 CALM      30.25R
CRYSTAL        CLEAR     46  43  89 CALM      30.23R FOG
BLAINE         PTCLDY    45  45 100 CALM      30.24R FOG
LAKEVILLE      CLEAR     43  43 100 CALM      30.25R FOG
EDEN PRAIRIE   CLEAR     46  45  96 SW5       30.24R
SOUTH ST PAUL  CLEAR     47  46  95 CALM      30.24R
LAKE ELMO      FOG       41  41 100 CALM      30.25R VSB<1/4
$$
MNZ001>005-007-008-013>017-022>024-027-028-221200-
   Northwest Minnesota

CITY           SKY/WX    TMP DP  RH WIND       PRES   REMARKS
BEMIDJI        CLEAR     44  44  97 SW6       30.18S
HALLOCK        CLEAR     45  43  93 S6        30.12S
ROSEAU         CLEAR     48  45  87 SW7       30.13S
WARROAD        CLEAR     48  45  87 SW7       30.13R
THIEF RVR FALL CLEAR     46  45  93 S7        30.16S
CROOKSTON      CLEAR     45  43  93 S6        30.17S
FOSSTON        CLEAR     45  43  93 S8        30.19R
DETROIT LAKES  CLEAR     50  46  87 SW7       30.22R
MOORHEAD       CLEAR     46  46 100 S7        30.21R
PARK RAPIDS    CLEAR     44  43  96 CALM      30.20S
MAHNOMEN       FAIR      46  45  97 S8        30.18S
$$
MNZ006-009>011-018-025>026-221200-
   North Central Minnesota

CITY           SKY/WX    TMP DP  RH WIND       PRES   REMARKS
BAUDETTE       CLEAR     48  46  93 SW6       30.13S
FLAG ISLAND    CLEAR     50  48  93 SW16      30.08S
INTL FALLS     CLEAR     41  40  96 SW7       30.13F
WASKISH        FAIR      41  41 100 CALM      30.16S FOG
BIG FORK       FOG       39  37  93 CALM      30.18S VSB 3/4
LONGVILLE      CLEAR     41  41 100 SW3       30.20S
GRAND RAPIDS   CLEAR     46  43  87 W5        30.20R
CRANE LAKE     CLEAR     36  36 100 CALM      30.16S
ORR            CLEAR     45  43  93 CALM      30.14S
COOK           CLEAR     41  41 100 CALM      30.17S FOG
WALKER         FAIR      44  43  98 CALM      30.19S
$$
MNZ012-019>021-037-221200-
   Northeast Minnesota

CITY           SKY/WX    TMP DP  RH WIND       PRES   REMARKS
DULUTH         PTCLDY    47  45  93 NW6       30.18S
ELY            CLOUDY    46  45  93 SW3       30.15S FOG
HIBBING        FOG       36  34  92 CALM      30.18S VSB 1/2
EVELETH        FOG       43  41  93 SW3       30.18S VSB 1/4
DULUTH HARBOR  PTCLDY    46  45  93 SW8       30.19S
TWO HARBORS    CLEAR     45  39  81 NW5       30.16S
SILVER BAY     CLEAR     43  43 100 CALM      30.14F
GRAND MARAIS     N/A     48  46  93 SW5       30.13R
G MARAIS ARPRT CLEAR     45  41  87 W3        30.13S
$$
MNZ029>031-032-039>041-046>048-054>057-064-221200-
   West Central Minnesota

CITY           SKY/WX    TMP DP  RH WIND       PRES   REMARKS
FERGUS FALLS   CLEAR     46  45  93 S5        30.24R
WHEATON        CLEAR     45  43  93 SW5       30.24S
MORRIS         CLEAR     45  43  93 S5        30.23R
ALEXANDRIA     CLEAR     49  47  93 SW10      30.25R
ELBOW LAKE     FAIR      44  44  97 S6        30.23R
WADENA         FOG       39  39 100 CALM      30.22R VSB 1
GLENWOOD       CLEAR     43  43 100 SW6       30.24S
APPLETON       CLEAR     43  43 100 CALM      30.24S FOG
BENSON         FOG       41  39  93 CALM      30.24S VSB 1
ORTONVILLE     CLEAR     45  43  93 CALM      30.23S
MADISON        CLEAR     48  45  87 SW5       30.24S
WILLMAR        FOG       41  39  93 CALM      30.27S VSB 1/4
$$
MNZ033>034-036-042>043-049>051-058-059-221200-
   Central Minnesota

CITY           SKY/WX    TMP DP  RH WIND       PRES   REMARKS
ST CLOUD       FOG       44  41  89 CALM      30.24R VSB 3/4
SAUK CENTRE    FOG       41  41 100 CALM      30.24S VSB 3/4
PAYNESVILLE    FOG       37  37 100 SW5       30.25S VSB 1/4
AITKIN         HAZE      43  37  81 CALM      30.20S VSB<1/4
PINE RIVER     FOG       37  37 100 CALM      30.24S VSB 1/4
BRAINERD       CLEAR     40  40 100 CALM      30.22S FOG
STAPLES        CLEAR     37  37 100 CALM      30.22S
LONG PRAIRIE     N/A     41  41 100 CALM      30.24S FOG
LITTLE FALLS   FOG       37  36  93 CALM      30.23S VSB 1/4
LITCHFIELD     CLEAR     48  48 100 CALM      30.26R
BUFFALO        CLEAR     44  41  92 CALM      30.25R
MAPLE LAKE       N/A     45  45  99 CALM      30.25S FOG
$$
MNZ037-044-045-052-053-221200-
   East Central Minnesota

CITY           SKY/WX    TMP DP  RH WIND       PRES   REMARKS
PRINCETON      MOCLDY    39  39 100 CALM      30.24R VSB 1/4
MORA           CLEAR     39  37  93 CALM      30.24R FOG
CAMBRIDGE      CLEAR     45  37  76 CALM      30.22R HAZE
RUSH CITY        N/A     40  39  98 CALM      30.23S FOG
MOOSE LAKE     CLEAR     43  43 100 CALM      30.19R
HINCKLEY       FAIR      41  41 100 CALM      30.22S FOG
CLOQUET        CLEAR     45  43  93 W6        30.20R
MCGREGOR       CLEAR     41  41 100 CALM      30.21S
$$
MNZ071>073-080-081-089-090-097-098-221200-
   Southwest Minnesota

CITY           SKY/WX    TMP DP  RH WIND       PRES   REMARKS
MONTEVIDEO     CLEAR     46  43  87 W5        30.26R
GRANITE FALLS  CLEAR     45  45 100 SW7       30.27S
CANBY          CLEAR     52  47  83 SW7       30.26S
MARSHALL       CLEAR     50  45  81 SW9       30.25R
REDWOOD FALLS  CLEAR     44  42  93 CALM      30.26R
OLIVIA           N/A     43  41  93 CALM      30.25R
PIPESTONE      CLEAR     43  43 100 SW3       30.28S
WINDOM           N/A     41  39  93 CALM      30.29R
WORTHINGTON    CLEAR     46  45  93 SW7       30.30R
JACKSON        CLEAR     45  43  93 CALM      30.29R
TRACY          CLEAR     49  46  89 CALM      30.27R
SLAYTON        CLEAR     48  46  93 CALM      30.28S
$$
MNZ065>067-074>077-082>085-091>093-221200-
   South Central Minnesota

CITY           SKY/WX    TMP DP  RH WIND       PRES   REMARKS
MANKATO          N/A     46  41  81 SW3       30.26R VSB 1/2
NEW ULM        CLEAR     41  41 100 CALM      30.26R
ST JAMES       CLEAR     43  41  93 SW5       30.28R
FAIRMONT       CLEAR     43  37  81 W6        30.28R
GLENCOE        CLEAR     45  43  91 W3        30.25R
FARIBAULT      HAZE      46  41  81 CALM      30.26R VSB 1/2
OWATONNA       MOCLDY    39  39 100 CALM      30.25S FOG
WASECA         FOG       41  37  87 CALM      30.27S VSB 1/2
ALBERT LEA     CLEAR     46  46 100 CALM      30.25S FOG
$$
MNZ078>079-086>088-094>096-221200-
   Southeast Minnesota

CITY           SKY/WX    TMP DP  RH WIND       PRES   REMARKS
ROCHESTER      CLEAR     45  44  97 W6        30.26R
RED WING       CLEAR     43  43 100 CALM      30.23S
STANTON        CLEAR     43  42  94 CALM      30.24R FOG
DODGE CENTER   FOG       43  43 100 W5        30.25R VSB 1/4
WINONA         CLEAR     43  43 100 CALM      30.25R
AUSTIN         FOG       43  43 100 CALM      30.25S VSB 1/4
PRESTON        CLEAR     46  46 100 W3        30.26R
$$
ABBREVIATIONS USED IN REMARKS
   TC - TEMPERATURES IN CELSIUS
  WCI - WIND CHILL INDEX
   HX - HEAT INDEX
  VSB - VISIBILITY
$$



USA.gov is the U.S. government's official web portal to all federal, state and local government web resources and services.